Location: Buchberg
(46.9333°N, 15.8500°E)
Time: 04:26:17
(UTC+00:00)

Cosmos 2082 Rocket - Pass Details

Date: 14 July 2020
Orbit: 834 x 853 km, 71.0° (Epoch: 11 August)

Event Time Altitude Azimuth Distance (km) Brightness Sun altitude
Exits shadow 00:40:53 18° 158° (SSE) 1,974 3.7 -17.9°
Maximum altitude 00:44:20 34° 105° (ESE) 1,386 3.4 -17.7°
Drops below altitude 10° 00:49:23 10° 43° (NE) 2,488 5.8 -17.3°
Sets 00:52:03 0° 34° (NE) 3,426 7.1 -17.1°
